map of MGD home
MGD - Airport
Location
City:  Magdalena, ItÚnez, El Beni, Bolivia
Name:Magdalena Airport
ICAO:SLMG
IATA:MGD

Details
Type:Airport (Aerodrome, Airfield)
Use:Public/Civil
Latitude:13░15'31"S (-13.258666)
Longitude:64░03'43"W (-64.061999)
Elevation:463 ft (141 m)
Variation:12.42░W (WMM2015v2 magnetic declination)
-0.19░ annual change
Runways:1
Longest:4449 × 98 ft (1356 × 30 m)

Time
Time Zone:UTC-4
Local Time:

Weather
METAR:SLMG 041400Z 12004KT 9999 BKN080 27/23 Q1014

Related Locations
Nearby:
Farthest:RPPN: 12247 mi / 19710 km
Thitu Island (Pagasa) [Rancudo Airfield], Spratly Islands, PLW, PH

Find:

   beyond  
but within

Other Information
Maps:
NOTAMs:
Links:
Sources:

  
  • flag of Bolivia
  • flag of El Beni
  

Sectional Chart

Flight Planning
at skyvector.com

Satellite Image

Google Maps Satellite view

 

Copyright © 2004-2019 Karl L. Swartz. All rights reserved.
The Great Circle Mapper name and logo are trademarks of the Great Circle Mapper.
All other trademarks mentioned herein belong to their respective owners.
Please see credits for attibutions and further copyright information.

  Follow gcmap on Facebook Follow gcmap on Twitter GCmap on LinkedIn

hCard Microformat

Geo Microformat